Location: Arthez
(43.0833°N, 0.2500°W)
Time: 14:40:49
(UTC+00:00)

NOSS 3-1 (A) - Pass Details

Date: 15 December 2023
Orbit: 665 x 1546 km, 63.4° (Epoch: 18 February)

Event Time Altitude Azimuth Distance (km) Brightness Sun altitude
Exits shadow 04:24:36 13° 5° (N) 2,470 5.6 -32.0°
Drops below altitude 10° 04:26:08 10° 17° (NNE) 2,779 6.0 -31.7°
Sets 04:30:21 0° 39° (NE) 3,941 7.1 -30.9°
